Home   Weather   Kalisz   Past weeks

Flag for Poland Past Weather in Kalisz, Poland — Yesterday and Last 2 Weeks

Now
74 °F

Passing clouds.


Feels Like: 76 °F
Forecast: 60 / 72 °F
Wind: 3 mph from Southeast

Location: Kalisz

Current Time: Aug 19, 2017 at 12:04:01 am

Latest Report: Aug 18, 2017 at 11:00 pm


Visibility: 16 mi

Pressure: 29.85 "Hg

Humidity: 66%

Dew Point: 62 °F

Location of KaliszLocation

Past Weather in Kalisz — Graph

°F

Kalisz Temperature Yesterday

Maximum temperature yesterday: 83 °F (at 4:00 pm)
Minimum temperature yesterday: 64 °F (at 12:00 am)
Average temperature yesterday: 74 °F

High & Low Weather Summary for the Past Weeks

 TemperatureHumidityPressure
High86 °F (Aug 11, 4:00 pm)100% (Aug 11, 10:00 pm)30.28 "Hg (Aug 11, 10:00 pm)
Low53 °F (Aug 8, 6:00 am)35% (Aug 7, 5:00 pm)29.73 "Hg (Aug 11, 7:00 pm)
Average68 °F72%30.05 "Hg
* Reported Aug 3 10:00 pm — Aug 18 10:00 pm, Kalisz. Weather by CustomWeather, © 2017

Note: Actual official high and low records may vary slightly from our data, if they occured in-between our weather recording intervals... More about our weather records

Advertising

Kalisz Weather History for the Previous 24 Hours

Scroll right to see more
 ConditionsComfort  
Time TempWeatherWind HumidityBarometerVisibility
10:00 pm
Fri, Aug 18
75 °FPassing clouds.3 mph64%29.85 "Hg14 mi
9:00 pm76 °FPassing clouds.2 mph65%29.88 "Hg10 mi
8:00 pm80 °FOvercast.2 mph58%29.89 "Hg22 mi
7:00 pm82 °FOvercast.2 mph52%29.90 "Hg28 mi
6:00 pm82 °FOvercast.3 mph50%29.93 "Hg25 mi
5:00 pm83 °FOvercast.5 mph50%29.94 "Hg25 mi
4:00 pm83 °FOvercast.5 mph51%29.96 "Hg16 mi
3:00 pm83 °FOvercast.2 mph50%29.97 "Hg22 mi
2:00 pm83 °FOvercast.5 mph50%29.99 "Hg19 mi
1:00 pm81 °FOvercast.5 mph56%30.00 "Hg16 mi
12:00 pm79 °FOvercast.3 mph56%30.01 "Hg16 mi
11:00 am77 °FOvercast.5 mph61%30.03 "Hg14 mi
10:00 am74 °FOvercast.3 mph70%30.02 "Hg11 mi
9:00 am70 °FOvercast.3 mph81%30.03 "Hg6 mi
8:00 am67 °FOvercast.3 mph86%30.02 "Hg6 mi
7:00 am65 °FOvercast.2 mph92%30.02 "Hg6 mi
6:00 am65 °FOvercast.1 mph91%30.03 "Hg6 mi
5:00 am65 °FSprinkles. Overcast.2 mph90%30.04 "Hg6 mi
4:00 am65 °FOvercast.3 mph89%30.02 "Hg12 mi
3:00 am65 °FOvercast.3 mph89%30.03 "Hg12 mi
2:00 am65 °FOvercast.2 mph88%30.04 "Hg12 mi
1:00 am65 °FOvercast.3 mph88%30.05 "Hg6 mi
12:00 am64 °FOvercast.2 mph89%30.07 "Hg6 mi
Weather by CustomWeather, © 2017

See weather overviewHow to use our weather pages